Regional Weather Roundup
Issued by NWS Northern Indiana

Home | Current Version | Previous Version | Graphics & Text | Print | Product List | Glossary On
Versions: 1 2 3 4 5 6 7 8 9 10 11 12 13 14 15 16 17 18 19 20 21 22 23 24 25 26 27 28 29 30 31 32 33 34 35 36 37 38 39 40 41 42 43 44 45 46 47 48 49 50
931
ASUS43 KIWX 091200
RWRIWX

KIWX WEATHER ROUNDUP
NATIONAL WEATHER SERVICE NORTHERN INDIANA
700 AM EST TUE FEB 09 2016

NOTE: "FAIR" INDICATES FEW OR NO CLOUDS BELOW 12,000 FEET WITH NO
SIGNIFICANT WEATHER AND/OR OBSTRUCTIONS TO VISIBILITY.

* THESE STATIONS ARE NOT UNDER NWS QUALITY CONTROL. THEY ALSO MAY NOT
  REPORT WEATHER SUCH AS PRECIPITATION OR FOG.

INZ001>027-091300-
NORTHERN INDIANA

CITY           SKY/WX    TMP DP  RH WIND       PRES   REMARKS
GARY*          FLURRIES  21  14  73 W14       29.76R WCI   8
SOUTH BEND     FLURRIES  27  24  89 NW15      29.67R WCI  15
6HR MIN TEMP:  24; 6HR MAX TEMP:  27; 6HR PCP:  0.02;

GOSHEN         CLOUDY    26  22  84 W13       29.64R WCI  15
6HR MIN TEMP:  26; 6HR MAX TEMP:  27; 6HR PCP: TRACE;

ANGOLA*        MOCLDY    27  27 100 W9        29.59R WCI  17
FORT WAYNE     LGT SNOW  27  21  78 W16       29.66R WCI  15
6HR MIN TEMP:  27; 6HR MAX TEMP:  29; 6HR PCP: TRACE;


$$
INZ028>050-091300-
CENTRAL INDIANA

CITY           SKY/WX    TMP DP  RH WIND       PRES   REMARKS
LAFAYETTE      FLURRIES  19  15  84 W10       29.76R WCI   7
6HR MIN TEMP:  19; 6HR MAX TEMP:  22; 6HR PCP: TRACE;

KOKOMO*        CLOUDY    21  16  79 W16       29.71R WCI   7
6HR MIN TEMP:  21; 6HR MAX TEMP:  25;

MUNCIE*        CLOUDY    23  18  81 W15       29.69R WCI  10
6HR MIN TEMP:  23; 6HR MAX TEMP:  25; 6HR PCP: TRACE;

INDIANAPOLIS   LGT SNOW  20  16  84 W17       29.75R FOG     WCI   5
6HR MIN TEMP:  20; 6HR MAX TEMP:  22; 6HR PCP: TRACE;


$$
MIZ043>046-050>051-056>058-064>065-071>073-077>080-091300-
SOUTHWEST LOWER MICHIGAN

CITY           SKY/WX    TMP DP  RH WIND       PRES   REMARKS
BATTLE CREEK   CLOUDY    29  24  82 NW16      29.60R WCI  17
6HR MIN TEMP:  29; 6HR MAX TEMP:  31;

BENTON HARBOR  LGT SNOW  29  23  78 VRB7G17   29.67R WCI  22
6HR MIN TEMP:  29; 6HR MAX TEMP:  31; 6HR PCP:  0.09;

COLDWATER*     CLOUDY    30  30  99 W7        29.59R WCI  23
6HR MIN TEMP:  28; 6HR MAX TEMP:  30;

HILLSDALE*     LGT SNOW  28  28  99 W6        29.56R WCI  21
6HR MIN TEMP:  28; 6HR MAX TEMP:  29;

HOLLAND        CLOUDY    27  21  78 NW8       29.66R WCI  19
6HR MIN TEMP:  27; 6HR MAX TEMP:  33;

GRAND RAPIDS   CLOUDY    27  20  75 NW14      29.62R WCI  16
6HR MIN TEMP:  27; 6HR MAX TEMP:  33;

KALAMAZOO      CLOUDY    29  24  82 NW13      29.61R WCI  19
6HR MIN TEMP:  29; 6HR MAX TEMP:  32; 6HR PCP: TRACE;

STURGIS*       CLOUDY    28  27  96 NW9       29.60R WCI  19
6HR MIN TEMP:  27; 6HR MAX TEMP:  29;

THREE RIVERS*  CLOUDY    29  28  94 NW13G18   29.62R WCI  19

$$
OHZ001>008-015>018-024>025-091300-
NORTHWEST OHIO

CITY           SKY/WX    TMP DP  RH WIND       PRES   REMARKS
DEFIANCE       FLURRIES  29  23  78 W7        29.62R WCI  22
6HR MIN TEMP:  29; 6HR MAX TEMP:  31; 6HR PCP: TRACE;

FINDLAY        CLOUDY    28  22  78 W18       29.61R WCI  15
6HR MIN TEMP:  28; 6HR MAX TEMP:  32;

TOLEDO EXPRESS LGT SNOW  28  25  88 W15       29.59R FOG     WCI  16
6HR MIN TEMP:  28; 6HR MAX TEMP:  32; 6HR PCP: TRACE;

TOLEDO METCALF LGT SNOW  30  25  81 SW14      29.59R WCI  19
6HR MIN TEMP:  30; 6HR MAX TEMP:  33; 6HR PCP: TRACE;

LIMA           CLOUDY    26  22  84 W15       29.62S WCI  14
6HR MIN TEMP:  26; 6HR MAX TEMP:  28;


$$
AND FOR LAKE MICHIGAN COASTAL AND OPEN LAKE BUOY OBSERVATIONS

STATION/POSITION TEMP    WIND        PRES    VSBY  WAVE
                 AIR SEA DIR/SP/G                  HT/PER
                 (F)     (DEG/KT/KT) (MB)    (MI)  (FT/S)
CALUMET HARBOR    18     290/ 11/ 15 1006.9R
MICHIGAN CITY     24     260/ 24/ 27   N/A
BURNS HARBOR      22     300/ 18/ 20 1007.1R
SAINT JOSEPH      30     320/ 21/ 24 1005.4R

$$
&&




USA.gov is the U.S. government's official web portal to all federal, state and local government web resources and services.